Regional Weather Roundup
Issued by NWS Sterling, VA

Home | Current Version | Previous Version | Text Only | Print | Product List | Glossary Off
Versions: 1 2 3 4 5 6 7 8 9 10 11 12 13 14 15 16 17 18 19 20 21 22 23 24 25 26 27 28 29 30 31 32 33 34 35 36 37 38 39 40 41 42 43 44 45 46 47 48 49 50

523
ASUS41 KLWX 231611
RWRLWX

REGIONAL WEATHER ROUNDUP
NATIONAL WEATHER SERVICE BALTIMORE MD/WASHINGTON DC
1200 PM EDT FRI JUN 23 2017

Note: "FAIR" indicates few or no clouds below 12,000 feet
with no significant weather and/or obstructions to visibility.
 TC=TEMPERATURE CELSIUS

 * =Non NWS site. Station does not report precipitation (e.g. rain,
    snow, etc.), thunder, or fog.

DCZ001-MDZ009-015-VAZ040>042-051-053>054-231700-
WASHINGTON METRO

CITY           SKY/WX    TMP DP  RH WIND       PRES   REMARKS
WASHINGTON NAT PTSUNNY   86  75  69 S18G26    29.79F HX  95
DULLES         PTSUNNY   85  73  67 SW17G25   29.79F HX  91
ANDREWS AFB    MOSUNNY   84  73  71 SW17G29   29.80F HX  90
FT BELVOIR     MOSUNNY   85  73  67 S6        29.80F HX  91
QUANTICO       PTSUNNY   85  74  69 SW9G20    29.82F HX  92
COLLEGE PARK*  PTSUNNY   83  73  70 S7        29.78F
LEESBURG*      PTSUNNY  N/A N/A N/A SW9       29.80F
MANASSAS*      PTSUNNY   84  73  70 SW14G25   29.80F HX  91
GAITHERSBURG*  PTSUNNY   84  74  71 SW9G17    29.81F HX  91

$$

MDZ006>007-011-014-231700-
BALTIMORE METRO

CITY           SKY/WX    TMP DP  RH WIND       PRES   REMARKS
BWI AIRPORT    PTSUNNY   82  75  79 SW13G22   29.78F
MD SCIENCE CTR   N/A     84  74  71 MISG      29.78F HX  91
MARTIN STATE   PTSUNNY   81  75  83 S8G16     29.80F
ANNAPOLIS      MOSUNNY   83  77  82 S13       29.79F HX  92
FORT MEADE*    PTSUNNY   81  73  78 SW12G17   29.82F

$$

MDZ012-015-019>023-231700-
MARYLAND EASTERN SHORE

CITY           SKY/WX    TMP DP  RH WIND       PRES   REMARKS
OCEAN CITY     PTSUNNY   76  71  85 S10       29.87F
SALISBURY      CLOUDY    82  76  81 SW17G28   29.85F
BAY BRIDGE AP* PTSUNNY   82  75  78 SW13G18   29.80F
CAMBRIDGE*     CLOUDY    81  73  78 SW9G20    29.84F
EASTON*        PTSUNNY   81  73  78 SW14G23   29.86F

$$

MDZ017>025-231700-
SOUTHERN MARYLAND

CITY           SKY/WX    TMP DP  RH WIND       PRES   REMARKS
PATUXENT RIVER MOSUNNY   83  74  74 SW13G24   29.83F
ST INIGOES     PTSUNNY   83  75  77 SW13      29.84F HX  90
LEONARDTOWN*   MOSUNNY   81  72  74 SW17      29.85F

$$

MDZ003>005-231700-
NORTH CENTRAL MARYLAND

CITY           SKY/WX    TMP DP  RH WIND       PRES   REMARKS
FREDERICK*     CLOUDY    82  73  74 SW12      29.81F
HAGERSTOWN APT MOSUNNY   82  72  71 SW13      29.78F
WESTMINSTER*   PTSUNNY   81  73  78 SW15      29.80F

$$

MDZ501>502-231700-
WESTERN MARYLAND

CITY           SKY/WX    TMP DP  RH WIND       PRES   REMARKS
OAKLAND*       NOT AVBL
CUMBERLAND*    CLOUDY    79  73  83 SE3       29.81F

$$

VAZ025>031-231700-
SHENANDOAH VALLEY

CITY           SKY/WX    TMP DP  RH WIND       PRES   REMARKS
WINCHESTER*    PTSUNNY   82  70  65 SW15G21   29.79F
FRONT ROYAL*   PTSUNNY   82  72  69 SW10G16   29.80S
LURAY*         CLOUDY    82  72  69 SW13G22   29.83S
NEW MARKET*    CLOUDY    82  69  65 SW9G17    29.81S
STAUNTON*      CLOUDY    77  69  75 SW12G17   29.90S
WAYNESBORO*    CLOUDY    76  71  83 SW13G21   29.91R

$$

WVZ021-048>050-054>055-231700-
EASTERN WEST VIRGINIA PANHANDLE

CITY           SKY/WX    TMP DP  RH WIND       PRES   REMARKS
MARTINSBURG    PTSUNNY   83  71  67 SW9       29.77F
PETERSBURG*    CLOUDY    85  70  61 SW6       29.80F

$$

VAZ036>039-050-231700-
CENTRAL FOOTHILLS

CITY           SKY/WX    TMP DP  RH WIND       PRES   REMARKS
CHARLOTTESVILL CLOUDY    81  74  79 S12       29.85F
CULPEPER*      PTSUNNY   84  73  71 SW13G20   29.83S HX  90
ORANGE*        CLOUDY    79  72  78 SW10G17   29.84F
GORDONSVILLE*  CLOUDY    79  74  82 SW13G24   29.84S
WARRENTON*     MOSUNNY   85  71  62 S9        29.81F HX  91

$$

VAZ055>057-231700-
NORTH AND CENTRAL PIEDMONT

CITY           SKY/WX    TMP DP  RH WIND       PRES   REMARKS
FREDERICKSBRG* SUNNY     85  74  69 SW15G25   29.82F HX  93
STAFFORD*      SUNNY     83  74  72 SW12G20   29.86F HX  90

$$

NCZ024-NYZ072-PAZ021-071-VAZ022-071-231700-
OTHER REGIONAL OBSERVATIONS

CITY           SKY/WX    TMP DP  RH WIND       PRES   REMARKS
NEW YORK CITY  CLOUDY    81  72  74 SW8       29.79F
PHILADELPHIA   CLOUDY    75  71  87 SW13      29.79F
PITTSBURGH     LGT RAIN  74  72  93 SW12      29.73F
ROANOKE        CLOUDY    80  71  74 SW7       29.93F
RICHMOND       CLOUDY    82  74  76 SW12      29.88F
RALEIGH        PTSUNNY   84  76  76 SW17G24   29.97F HX  93

$$

ANZ530>537-231700-
MARINE OBSERVATIONS

STATION/POSITION TIME  TEMP    WIND        PRES
                       AIR SEA DIR/SP/G
                 (UTC) (F)     (DEG/KT/KT) (MB)
THOMAS PT LIGHT  1600   80 78  210/ 13/ 15   N/A
BALT KEY BRIDGE  1548   79     210/ 16/ 20 1008.1F
COVE POINT       1548   80     250/ 19/ 25 1010.7F
LEWISETTA        1548   81 78  250/ 17/ 22 1010.6F
SOLOMONS ISLAND  1548   80 77  240/ 19/ 30   N/A
PINEY POINT      1548          260/  8/ 11   N/A

$$





USA.gov is the U.S. government's official web portal to all federal, state and local government web resources and services.